KB3MVG-13 Weather Reports


Display with metric or nautical units.
time (UTC)temp
F
wind
direction
speed
MPH
gust
MPH
rain 1hr
in
rain 24hr
in
rain mn
in
humidity
%
barometer
mb
20230131201015 28 135 4.0 7.0 0.01 0.01 0.01 44 1023.4
20230131200015 27 158 4.0 8.0 0.01 0.01 0.01 44 1023.6
20230131195015 28 135 3.0 8.0 0.01 0.01 0.01 44 1023.8
20230131194015 28 113 2.0 4.0 0.01 0.01 0.01 44 1024.1
20230131193015 26 113 2.0 4.0 0.01 0.01 0.01 45 1023.8
20230131192015 25 135 3.0 5.0 0.01 0.01 0.01 47 1024.1
20230131191015 24 113 4.0 8.0 0.00 0.00 0.00 50 1023.9
20230131190015 25 113 3.0 7.0 0.00 0.00 0.00 50 1024.7
20230131185015 24 113 3.0 6.0 0.00 0.00 0.00 52 1024.5
20230131184015 23 113 4.0 9.0 0.00 0.00 0.00 54 1024.6
20230131183015 23 113 3.0 7.0 0.00 0.00 0.00 53 1024.8
20230131182015 23 113 5.0 9.0 0.00 0.00 0.00 54 1024.9
20230131181015 23 90 4.0 7.0 0.00 0.00 0.00 54 1025.2
20230131180015 24 90 4.0 8.0 0.00 0.00 0.00 54 1025.9
20230131175015 24 90 2.0 4.0 0.00 0.00 0.00 56 1025.9
20230131174015 22 90 1.0 3.0 0.00 0.00 0.00 58 1025.7
20230131173035 20 90 2.0 4.0 0.00 0.00 0.00 60 1025.2
20230131172015 20 113 4.0 6.0 0.00 0.00 0.00 58 1024.8
20230131171015 21 135 1.0 4.0 0.00 0.00 0.00 59 1025.3
20230131170017 19 0.0 3.0 0.00 0.00 0.00 62 1024.8
20230131165017 18 135 4.0 6.0 0.00 0.00 0.00 60 1024.8
20230131164017 18 225 4.0 9.0 0.00 0.00 0.00 59 1024.7
20230131163037 18 203 3.0 5.0 0.00 0.00 0.00 63 1024.8
20230131162017 16 203 2.0 4.0 0.00 0.00 0.00 62 1024.1
20230131161017 15 225 2.0 5.0 0.00 0.00 0.00 65 1023.8
20230131160017 12 270 3.0 6.0 0.00 0.00 0.00 66 1023.3
20230131155017 11 203 2.0 3.0 0.00 0.00 0.00 65 1022.9
20230131154017 12 158 4.0 6.0 0.00 0.00 0.00 67 1023.2
20230131153017 10 248 4.0 7.0 0.00 0.00 0.00 69 1022.7
20230131152017 8 270 2.0 4.0 0.00 0.00 0.00 71 1022.3
20230131151017 7 135 1.0 3.0 0.00 0.00 0.00 73 1022.3
20230131150037 5 0 2.0 3.0 0.00 0.00 0.00 71 1021.4
20230131145017 6 90 4.0 7.0 0.00 0.00 0.00 71 1021.7
20230131144017 6 248 4.0 8.0 0.00 0.00 0.00 73 1021.4
20230131143017 5 113 2.0 4.0 0.00 0.00 0.00 73 1021.6
20230131142037 5 248 3.0 5.0 0.00 0.00 0.00 72 1022.0
20230131141037 5 0 2.0 6.0 0.00 0.00 0.00 71 1021.8
20230131140018 5 338 2.0 4.0 0.00 0.00 0.00 73 1022.2
20230131135017 4 23 2.0 4.0 0.00 0.00 0.00 73 1021.4
20230131134016 5 23 2.0 4.0 0.00 0.00 0.00 73 1021.8
20230131133036 5 23 2.0 3.0 0.00 0.00 0.00 73 1021.8
20230131132037 5 23 4.0 5.0 0.00 0.00 0.00 73 1021.8
20230131131017 5 270 3.0 5.0 0.00 0.00 0.00 71 1021.8
20230131130016 5 270 1.0 2.0 0.00 0.00 0.00 71 1021.8
20230131125017 5 293 2.0 3.0 0.00 0.00 0.00 72 1021.9
20230131124017 4 296 0.0 0.0 0.00 0.00 0.00 72 1021.4
20230131123017 4 270 3.0 4.0 0.00 0.00 0.00 72 1021.4
20230131122017 4 248 3.0 4.0 0.00 0.00 0.00 73 1021.4
20230131121036 4 225 3.0 5.0 0.00 0.00 0.00 73 1021.5
20230131120016 3 248 3.0 5.0 0.00 0.00 0.00 73 1021.7
20230131115016 3 248 4.0 5.0 0.00 0.00 0.00 73 1022.0
20230131114016 3 248 5.0 7.0 0.00 0.00 0.00 74 1022.2
20230131113016 3 248 4.0 7.0 0.00 0.00 0.00 76 1022.1
20230131112017 3 248 4.0 6.0 0.00 0.00 0.00 76 1022.3
20230131111017 3 225 5.0 8.0 0.00 0.00 0.00 77 1022.4
20230131110036 3 225 3.0 5.0 0.00 0.00 0.00 78 1022.6
20230131105017 4 225 2.0 4.0 0.00 0.00 0.00 79 1023.3
20230131104037 4 225 3.0 4.0 0.00 0.00 0.00 80 1023.6
20230131103036 4 225 2.0 4.0 0.00 0.00 0.00 80 1023.6
20230131102037 4 203 3.0 3.0 0.00 0.00 0.00 79 1023.7
20230131101131 4 180 3.0 3.0 0.00 0.00 0.00 79 1023.7
20230131100017 4 180 2.0 3.0 0.00 0.00 0.00 79 1023.7
20230131095017 4 180 2.0 4.0 0.00 0.00 0.00 79 1023.7
20230131094016 5 180 2.0 5.0 0.00 0.00 0.00 79 1023.7
20230131093017 5 158 3.0 5.0 0.00 0.00 0.00 78 1023.3
20230131092017 5 158 4.0 8.0 0.00 0.00 0.00 79 1023.9
20230131091036 5 180 2.0 3.0 0.00 0.00 0.00 78 1023.9
20230131090016 5 203 2.0 4.0 0.00 0.00 0.00 78 1023.8
20230131085016 5 203 1.0 3.0 0.00 0.00 0.00 78 1024.0
20230131084016 5 203 1.0 3.0 0.00 0.00 0.00 78 1024.0
20230131083017 5 203 1.0 3.0 0.00 0.00 0.00 77 1023.9
20230131082016 5 203 3.0 5.0 0.00 0.00 0.00 77 1024.0
20230131081016 5 180 2.0 6.0 0.00 0.00 0.00 78 1024.0
20230131080016 5 158 1.0 4.0 0.00 0.00 0.00 78 1024.1
20230131075017 5 180 2.0 4.0 0.00 0.00 0.00 78 1023.6
20230131074016 5 158 2.0 5.0 0.00 0.00 0.00 78 1023.8
20230131073016 5 158 2.0 3.0 0.00 0.00 0.00 78 1024.0
20230131072037 5 158 1.0 2.0 0.00 0.00 0.00 78 1024.2
20230131071016 5 135 4.0 6.0 0.00 0.00 0.00 77 1024.4
20230131070016 5 135 3.0 7.0 0.00 0.00 0.00 77 1024.3
20230131065015 5 135 3.0 6.0 0.00 0.00 0.00 76 1024.7
20230131064016 5 158 6.0 10.0 0.00 0.00 0.00 74 1024.8
20230131063016 5 158 6.0 10.0 0.00 0.00 0.00 73 1024.5
20230131062016 5 158 5.0 10.0 0.00 0.00 0.00 72 1024.4
20230131061036 5 158 9.0 13.0 0.00 0.00 0.00 70 1024.4
20230131060016 6 158 9.0 15.0 0.00 0.00 0.00 69 1025.0
20230131055016 6 158 9.0 16.0 0.00 0.00 0.00 69 1024.5
20230131054015 6 158 6.0 12.0 0.00 0.00 0.00 73 1024.4
20230131053015 6 135 4.0 8.0 0.00 0.00 0.00 74 1025.1
20230131052016 6 135 4.0 9.0 0.00 0.00 0.00 73 1024.4
20230131051016 6 135 4.0 8.0 0.00 0.00 0.00 74 1023.7
20230131050016 6 113 4.0 9.0 0.00 0.00 0.00 75 1023.8
20230131045016 6 135 4.0 8.0 0.00 0.00 0.00 74 1023.9
20230131044015 6 135 3.0 7.0 0.00 0.00 0.00 73 1023.9
20230131043015 6 158 4.0 6.0 0.00 0.00 0.00 73 1023.7
20230131042015 6 113 2.0 4.0 0.00 0.00 0.00 73 1023.8
20230131041015 6 135 2.0 4.0 0.00 0.00 0.00 72 1024.3
20230131040015 6 135 3.0 6.0 0.00 0.00 0.00 72 1023.9
20230131035015 6 113 3.0 4.0 0.00 0.00 0.00 73 1023.9
20230131034035 5 135 3.0 6.0 0.00 0.00 0.00 73 1023.3
20230131033015 5 135 3.0 5.0 0.00 0.00 0.00 74 1023.4
20230131032056 5 158 3.0 5.0 0.00 0.00 0.00 76 1023.3
20230131031016 5 135 2.0 6.0 0.00 0.00 0.00 77 1022.8
20230131030036 5 113 2.0 3.0 0.00 0.00 0.00 77 1022.7
20230131025016 5 113 2.0 3.0 0.00 0.00 0.00 77 1022.6
20230131024016 5 90 2.0 3.0 0.00 0.00 0.00 77 1022.6
20230131023015 5 90 1.0 2.0 0.00 0.00 0.00 77 1022.5
20230131022015 5 90 1.0 2.0 0.00 0.00 0.00 77 1022.4
20230131021015 5 90 1.0 3.0 0.00 0.00 0.00 77 1022.5
20230131020016 5 90 1.0 3.0 0.00 0.00 0.00 77 1022.4
20230131015016 5 90 1.0 3.0 0.00 0.00 0.00 77 1022.4
20230131014035 5 90 2.0 3.0 0.00 0.00 0.00 77 1022.3
20230131013015 5 113 2.0 4.0 0.00 0.00 0.00 77 1022.3
20230131012015 5 90 3.0 6.0 0.00 0.00 0.00 76 1022.0
20230131011156 5 90 3.0 6.0 0.00 0.00 0.00 76 1021.8
20230131010015 5 113 2.0 4.0 0.00 0.00 0.00 75 1021.6
20230131005015 5 90 3.0 6.0 0.00 0.00 0.00 75 1021.6
20230131004015 5 90 3.0 4.0 0.00 0.00 0.00 75 1021.4
20230131003016 5 68 2.0 4.0 0.00 0.00 0.00 75 1021.1
20230131002016 5 90 2.0 4.0 0.00 0.00 0.00 75 1021.0
20230131001015 5 90 3.0 6.0 0.00 0.00 0.00 74 1021.1
20230131000015 5 68 3.0 6.0 0.00 0.00 0.00 74 1021.0
20230130235015 5 90 4.0 7.0 0.00 0.00 0.00 73 1021.2
20230130234035 5 113 5.0 8.0 0.00 0.00 0.00 73 1021.2
20230130233016 6 68 4.0 7.0 0.00 0.00 0.00 72 1021.3
20230130232015 6 113 3.0 8.0 0.00 0.00 0.00 72 1021.1
20230130231015 6 23 2.0 4.0 0.00 0.00 0.00 71 1020.9
20230130230015 6 90 4.0 7.0 0.00 0.00 0.00 71 1021.4
20230130225015 6 45 5.0 9.0 0.00 0.00 0.00 71 1021.1
20230130224015 7 23 4.0 12.0 0.00 0.00 0.00 70 1020.8
20230130223015 7 45 3.0 7.0 0.00 0.00 0.00 70 1020.7
20230130222015 6 45 4.0 8.0 0.00 0.00 0.00 71 1020.4
20230130221115 7 68 3.0 7.0 0.00 0.00 0.00 71 1020.3
20230130220015 6 23 2.0 5.0 0.00 0.00 0.00 71 1020.2
20230130215035 6 90 3.0 7.0 0.00 0.00 0.00 70 1019.9
20230130214015 6 90 4.0 7.0 0.00 0.00 0.00 70 1019.5
20230130213035 5 90 3.0 7.0 0.00 0.00 0.00 71 1019.1
20230130212035 5 90 2.0 4.0 0.00 0.00 0.00 71 1019.0
20230130211035 5 113 4.0 7.0 0.00 0.00 0.00 70 1019.1
20230130210015 6 45 3.0 5.0 0.00 0.00 0.00 71 1019.6
20230130205015 6 23 2.0 5.0 0.00 0.00 0.00 71 1019.5
20230130204036 6 45 2.0 5.0 0.00 0.00 0.00 70 1019.7
20230130203015 7 90 4.0 7.0 0.00 0.00 0.00 72 1019.6
20230130202036 6 90 2.0 5.0 0.00 0.00 0.00 72 1019.7